�N����,����,�~����,�C��,���x,�C��,����,���ϕ���,�ő�u�ԕ���,�ő厞����,���˗�,�I�_���x,�n�����x,�ő啗���N��,DTYPE
"20/05/24","00:10",0.0,19.0,82.8,1008.1,295.2,1.0,1.2,272.8,0.00,16.1,20.9,"00:00:56",1
"20/05/24","00:20",0.0,18.8,83.3,1008.3,283.8,0.7,1.2,305.6,0.00,15.9,21.0,"00:19:12",1
"20/05/24","00:30",0.0,18.8,83.8,1008.3,274.1,1.0,1.2,278.8,0.00,16.0,20.7,"00:21:36",1
"20/05/24","00:40",0.0,18.7,84.2,1008.1,278.3,0.8,1.6,257.0,0.00,16.0,20.6,"00:30:40",1
"20/05/24","00:50",0.0,18.6,84.7,1008.1,296.9,1.0,1.4,312.5,0.00,16.0,20.7,"00:45:28",1
"20/05/24","01:00",0.0,18.6,85.2,1008.3,278.0,1.0,1.6,255.3,0.00,16.1,20.6,"00:56:32",1
"20/05/24","01:10",0.0,18.5,85.6,1008.3,282.1,0.8,1.4,306.1,0.00,16.1,20.6,"01:01:36",1
"20/05/24","01:20",0.0,18.4,85.9,1008.1,287.0,0.8,1.1,286.3,0.00,16.0,20.5,"01:13:52",1
"20/05/24","01:30",0.0,18.3,86.3,1008.1,277.0,0.8,1.2,302.7,0.00,16.0,20.6,"01:20:08",1
"20/05/24","01:40",0.0,18.2,86.5,1008.1,276.0,0.8,1.1,296.9,0.00,16.0,20.2,"01:30:08",1
"20/05/24","01:50",0.0,18.1,86.9,1008.3,279.6,0.8,1.2,289.9,0.00,15.9,20.2,"01:44:00",1
"20/05/24","02:00",0.0,18.1,87.3,1008.1,276.6,1.0,1.4,255.6,0.00,16.0,20.2,"01:58:08",1
"20/05/24","02:10",0.0,18.1,87.6,1008.1,291.7,1.0,1.4,316.0,0.00,16.1,20.2,"02:04:08",1
"20/05/24","02:20",0.0,18.2,88.1,1008.1,323.5,1.2,2.5,317.0,0.00,16.2,20.0,"02:19:04",1
"20/05/24","02:30",0.0,18.2,88.4,1007.8,319.2,1.3,1.9,319.9,0.00,16.3,20.2,"02:29:36",1
"20/05/24","02:40",0.0,18.2,88.6,1008.3,298.2,0.8,1.2,329.2,0.00,16.3,20.2,"02:39:12",1
"20/05/24","02:50",0.0,18.3,88.8,1008.3,288.1,0.8,1.3,322.2,0.00,16.5,20.1,"02:40:08",1
"20/05/24","03:00",0.0,18.4,89.1,1008.3,280.6,0.8,1.2,311.5,0.00,16.6,20.0,"02:59:52",1
"20/05/24","03:10",0.0,18.4,89.2,1008.6,312.1,1.0,1.3,331.4,0.00,16.6,20.0,"03:09:12",1
"20/05/24","03:20",0.0,18.5,89.3,1008.3,311.3,0.8,1.4,316.1,0.00,16.7,20.2,"03:13:20",1
"20/05/24","03:30",0.0,18.6,89.5,1008.6,301.4,0.7,1.0,317.2,0.00,16.9,20.2,"03:25:52",1
"20/05/24","03:40",0.0,18.7,89.6,1008.6,315.8,1.0,1.2,331.5,0.00,17.0,20.0,"03:37:12",1
"20/05/24","03:50",0.0,18.7,89.8,1008.3,273.6,0.7,1.2,301.4,0.00,17.0,20.1,"03:49:36",1
"20/05/24","04:00",0.0,18.7,89.9,1008.3,291.5,0.7,1.0,277.5,0.00,17.0,20.0,"03:50:16",1
"20/05/24","04:10",0.0,18.9,90.0,1008.3,311.4,1.0,1.4,324.0,0.00,17.3,20.0,"04:07:52",1
"20/05/24","04:20",0.0,18.9,90.0,1008.1,323.0,1.2,1.7,328.8,0.00,17.3,19.9,"04:18:24",1
"20/05/24","04:30",0.0,18.9,90.0,1008.3,317.0,0.8,1.2,315.9,0.00,17.3,20.1,"04:20:32",1
"20/05/24","04:40",0.0,18.7,90.1,1008.3,278.5,0.5,0.6,279.3,0.00,17.1,20.1,"04:30:02",1
"20/05/24","04:50",0.0,18.5,90.2,1008.3,292.6,0.8,1.3,314.0,0.00,16.9,19.9,"04:49:36",1
"20/05/24","05:00",0.0,18.3,90.4,1008.3,293.3,1.0,1.2,304.3,0.00,16.7,20.0,"04:50:40",1
"20/05/24","05:10",0.0,18.2,90.5,1008.3,293.5,0.7,1.1,299.4,0.00,16.7,19.9,"05:00:32",1
"20/05/24","05:20",0.0,18.0,90.6,1008.3,300.1,0.7,1.0,313.6,0.00,16.5,19.8,"05:11:12",1
"20/05/24","05:30",0.0,18.1,90.7,1008.6,293.8,0.7,1.2,317.2,0.00,16.6,19.7,"05:23:44",1
"20/05/24","05:40",0.0,18.2,90.8,1007.8,299.8,0.7,1.1,323.6,0.00,16.7,19.8,"05:33:28",1
"20/05/24","05:50",0.0,18.3,90.8,1008.6,289.6,0.7,1.2,310.6,0.00,16.8,19.7,"05:44:24",1
"20/05/24","06:00",0.0,18.5,90.8,1008.6,297.7,0.7,1.1,318.4,0.02,17.0,19.8,"05:58:32",1
"20/05/24","06:10",0.0,18.8,90.9,1009.0,328.1,1.0,1.3,334.0,0.03,17.3,19.8,"06:08:48",1
"20/05/24","06:20",0.0,19.1,90.9,1008.6,339.8,1.0,1.6,340.2,0.04,17.6,19.8,"06:12:24",1
"20/05/24","06:30",0.0,19.6,90.9,1008.6,313.1,0.8,1.2,317.8,0.06,18.1,19.9,"06:25:12",1
"20/05/24","06:40",0.0,20.3,90.8,1008.3,323.0,1.0,1.7,337.8,0.10,18.8,19.8,"06:34:32",1
"20/05/24","06:50",0.0,21.5,90.5,1008.3,337.6,0.2,0.9,348.6,0.13,19.9,20.1,"06:40:08",1
"20/05/24","07:00",0.0,22.0,89.3,1008.3,246.1,0.2,0.6,241.3,0.13,20.2,20.1,"06:51:52",1
"20/05/24","07:10",0.0,22.0,87.0,1008.1,271.6,0.2,1.0,260.4,0.13,19.8,20.1,"07:02:00",1
"20/05/24","07:20",0.0,22.1,85.3,1007.8,243.0,0.6,1.6,165.5,0.16,19.6,20.3,"07:17:44",1
"20/05/24","07:30",0.0,22.0,82.3,1007.8,172.5,1.3,3.1,231.0,0.13,18.9,20.4,"07:27:12",1
"20/05/24","07:40",0.0,22.4,80.4,1007.8,162.5,1.5,3.9,209.9,0.15,18.9,20.4,"07:31:44",1
"20/05/24","07:50",0.0,22.5,77.2,1007.4,135.1,1.8,4.1,133.1,0.17,18.3,20.5,"07:48:24",1
"20/05/24","08:00",0.0,22.8,75.2,1007.4,155.5,2.0,4.1,184.2,0.16,18.2,20.9,"07:51:12",1
"20/05/24","08:10",0.0,22.6,74.3,1007.6,178.9,2.3,4.4,126.9,0.14,17.8,20.8,"08:00:32",1
"20/05/24","08:20",0.0,22.7,74.2,1006.9,163.5,1.6,3.6,143.8,0.08,17.9,20.9,"08:16:40",1
"20/05/24","08:30",0.0,22.8,73.8,1007.1,143.2,1.8,4.0,132.0,0.13,17.9,21.0,"08:22:00",1
"20/05/24","08:40",0.0,22.8,73.5,1007.1,150.1,1.8,4.9,123.1,0.10,17.9,20.9,"08:36:32",1
"20/05/24","08:50",0.0,22.9,73.2,1007.4,211.7,1.7,3.7,233.1,0.13,17.9,20.9,"08:44:00",1
"20/05/24","09:00",0.0,23.2,73.0,1007.1,225.0,1.0,2.5,233.6,0.14,18.1,21.0,"08:51:52",1
"20/05/24","09:10",0.0,24.1,72.0,1006.9,170.9,1.6,3.5,158.1,0.34,18.8,21.2,"09:08:16",1
"20/05/24","09:20",0.0,24.9,69.6,1006.7,179.6,1.1,3.7,134.0,0.38,19.0,21.3,"09:15:04",1
"20/05/24","09:30",0.0,24.4,67.2,1006.7,166.9,1.8,3.9,123.4,0.18,18.0,21.6,"09:21:12",1
"20/05/24","09:40",0.0,24.1,68.6,1006.9,207.7,1.3,2.7,190.2,0.17,18.0,21.7,"09:33:28",1
"20/05/24","09:50",0.0,24.2,68.8,1006.7,174.4,1.3,2.9,191.5,0.11,18.1,21.8,"09:44:56",1
"20/05/24","10:00",0.0,23.9,69.1,1006.7,87.2,1.0,2.5,117.5,0.07,17.9,21.9,"09:56:16",1
"20/05/24","10:10",0.0,23.6,70.1,1006.7,89.9,0.8,2.7,31.7,0.05,17.9,21.8,"10:02:48",1
"20/05/24","10:20",0.0,23.8,70.4,1006.7,13.4,0.8,2.4,45.9,0.09,18.1,21.9,"10:13:36",1
"20/05/24","10:30",0.0,24.2,70.7,1006.7,355.0,1.2,2.7,349.6,0.20,18.6,22.0,"10:26:08",1
"20/05/24","10:40",0.0,24.5,69.2,1006.9,5.7,1.2,3.1,348.9,0.19,18.5,22.0,"10:33:44",1
"20/05/24","10:50",0.0,25.5,68.0,1006.7,16.9,1.5,3.2,19.8,0.52,19.2,22.1,"10:48:16",1
"20/05/24","11:00",0.0,26.6,64.5,1006.2,71.3,1.1,3.1,23.7,0.50,19.4,22.4,"10:50:16",1
"20/05/24","11:10",0.0,26.1,61.8,1005.5,73.9,1.5,2.9,87.4,0.37,18.2,22.4,"11:02:40",1
"20/05/24","11:20",0.0,26.3,63.2,1005.5,76.6,1.1,2.4,75.1,0.44,18.8,22.8,"11:15:44",1
"20/05/24","11:30",0.0,26.5,61.8,1005.7,31.9,1.6,3.4,17.9,0.53,18.6,23.0,"11:28:16",1
"20/05/24","11:40",0.0,26.6,60.7,1005.0,95.8,1.7,3.4,99.3,0.52,18.4,23.3,"11:32:08",1
"20/05/24","11:50",0.0,26.1,61.2,1004.8,90.1,1.7,3.6,131.0,0.28,18.1,23.5,"11:46:56",1
"20/05/24","12:00",0.0,25.7,61.3,1004.8,103.3,2.0,4.8,119.7,0.27,17.7,23.6,"11:51:28",1
"20/05/24","12:10",0.0,25.2,62.5,1005.2,58.6,1.2,3.2,352.5,0.11,17.6,23.8,"12:07:44",1
"20/05/24","12:20",0.0,25.3,63.0,1004.5,57.1,1.1,2.7,34.3,0.13,17.8,23.8,"12:19:52",1
"20/05/24","12:30",0.0,25.5,63.2,1004.3,47.9,1.1,3.3,21.0,0.13,18.0,23.9,"12:26:16",1
"20/05/24","12:40",0.0,25.8,63.0,1004.3,116.7,1.3,2.9,121.5,0.21,18.3,23.5,"12:32:16",1
"20/05/24","12:50",0.0,26.2,60.0,1004.1,91.2,1.5,3.3,102.2,0.27,17.9,23.8,"12:40:24",1
"20/05/24","13:00",0.0,25.9,59.9,1004.1,81.5,1.5,3.1,79.0,0.15,17.6,23.7,"12:59:36",1
"20/05/24","13:10",0.0,26.7,60.2,1003.6,100.9,1.3,3.6,124.9,0.40,18.4,23.7,"13:07:36",1
"20/05/24","13:20",0.0,26.5,59.0,1003.4,97.4,1.5,4.2,117.8,0.16,17.9,23.8,"13:13:20",1
"20/05/24","13:30",0.0,26.4,60.0,1003.1,103.5,1.3,3.7,128.6,0.15,18.1,23.8,"13:26:24",1
"20/05/24","13:40",0.0,26.3,59.8,1003.6,109.0,1.3,3.7,95.3,0.14,17.9,23.8,"13:35:52",1
"20/05/24","13:50",0.0,26.5,60.8,1003.1,120.7,1.8,4.2,112.3,0.22,18.4,23.7,"13:40:16",1
"20/05/24","14:00",0.0,27.8,57.7,1003.1,139.8,2.0,3.9,82.9,0.40,18.7,23.8,"13:52:48",1
"20/05/24","14:10",0.0,28.5,55.4,1003.1,138.2,1.8,4.1,133.4,0.47,18.7,24.0,"14:01:52",1
"20/05/24","14:20",0.0,29.0,53.3,1003.6,141.1,1.6,2.8,135.4,0.46,18.6,24.1,"14:16:56",1
"20/05/24","14:30",0.0,27.8,55.5,1003.6,135.6,2.2,4.8,122.1,0.22,18.1,24.0,"14:29:36",1
"20/05/24","14:40",0.0,27.6,58.8,1003.4,124.5,1.7,3.5,126.8,0.28,18.9,24.0,"14:32:08",1
"20/05/24","14:50",0.0,28.1,55.3,1003.6,120.9,1.7,3.6,175.7,0.35,18.3,24.3,"14:47:28",1
"20/05/24","15:00",0.0,27.0,57.1,1003.1,152.7,2.0,4.9,125.7,0.10,17.8,24.1,"14:53:44",1
"20/05/24","15:10",0.0,27.1,58.1,1002.9,146.8,2.0,5.2,105.3,0.19,18.2,24.2,"15:07:52",1
"20/05/24","15:20",0.0,26.8,58.7,1002.9,135.4,2.1,4.2,131.7,0.16,18.1,24.3,"15:10:02",1
"20/05/24","15:30",0.0,27.9,56.6,1002.9,132.7,1.8,3.5,119.0,0.38,18.5,24.5,"15:29:44",1
"20/05/24","15:40",0.0,27.2,57.9,1002.9,144.1,2.2,4.4,137.8,0.14,18.2,24.3,"15:30:16",1
"20/05/24","15:50",0.0,26.4,59.1,1002.6,132.6,2.0,5.0,154.8,0.06,17.8,24.3,"15:42:32",1
"20/05/24","16:00",0.0,26.7,60.2,1002.9,119.0,1.6,3.6,135.9,0.17,18.4,24.4,"15:53:12",1
"20/05/24","16:10",0.0,26.6,59.4,1002.9,110.9,1.6,3.7,116.2,0.11,18.1,24.3,"16:08:40",1
"20/05/24","16:20",0.0,26.6,60.3,1002.6,133.7,2.0,3.9,129.1,0.15,18.3,24.3,"16:10:48",1
"20/05/24","16:30",0.0,27.0,59.6,1002.9,142.7,2.2,4.7,114.2,0.19,18.5,24.1,"16:21:52",1
"20/05/24","16:40",0.0,26.8,59.8,1002.9,163.2,2.1,3.3,140.3,0.12,18.4,24.2,"16:36:48",1
"20/05/24","16:50",0.0,26.1,61.7,1002.6,174.5,2.5,5.5,126.5,0.07,18.2,24.1,"16:44:24",1
"20/05/24","17:00",0.0,26.1,63.1,1003.1,192.7,2.8,5.5,211.5,0.07,18.6,24.2,"16:50:24",1
"20/05/24","17:10",0.0,25.8,63.8,1003.4,202.5,2.5,5.5,204.7,0.06,18.5,24.0,"17:04:00",1
"20/05/24","17:20",0.0,25.3,64.7,1003.6,207.0,2.5,5.0,225.8,0.04,18.2,23.9,"17:14:24",1
"20/05/24","17:30",0.0,25.1,65.4,1003.8,208.8,2.5,4.0,202.7,0.03,18.2,23.6,"17:29:44",1
"20/05/24","17:40",0.0,24.8,66.0,1003.8,205.6,2.2,4.7,224.7,0.02,18.1,23.8,"17:33:12",1
"20/05/24","17:50",0.0,24.7,66.6,1004.1,198.5,1.6,2.7,199.5,0.01,18.1,23.7,"17:44:40",1
"20/05/24","18:00",0.0,24.5,67.2,1004.1,172.5,1.3,3.5,123.4,0.00,18.1,23.7,"17:54:56",1
"20/05/24","18:10",0.0,24.5,67.5,1004.5,199.8,1.1,3.2,196.2,0.00,18.1,23.5,"18:03:20",1
"20/05/24","18:20",0.0,24.3,67.5,1004.5,128.1,1.0,1.9,197.1,0.00,17.9,23.4,"18:15:44",1
"20/05/24","18:30",0.0,24.1,68.1,1004.5,151.0,1.2,2.8,141.0,0.00,17.9,23.3,"18:26:24",1
"20/05/24","18:40",0.0,23.9,68.7,1004.3,226.9,1.2,2.4,211.6,0.00,17.8,23.2,"18:34:08",1
"20/05/24","18:50",0.0,23.7,69.2,1005.2,280.6,1.2,2.9,343.8,0.00,17.8,23.3,"18:47:36",1
"20/05/24","19:00",0.0,23.4,69.9,1004.8,268.3,1.1,2.1,237.7,0.00,17.6,23.0,"18:52:32",1
"20/05/24","19:10",0.0,23.2,70.7,1005.0,310.5,0.8,2.2,320.5,0.00,17.6,22.9,"19:05:52",1
"20/05/24","19:20",0.0,23.0,71.5,1005.0,306.2,1.1,2.6,340.2,0.00,17.6,23.0,"19:14:24",1
"20/05/24","19:30",0.0,22.9,72.2,1005.2,296.7,0.8,2.0,336.0,0.00,17.7,22.8,"19:23:36",1
"20/05/24","19:40",0.0,22.7,73.0,1005.5,311.8,1.1,2.6,349.2,0.00,17.7,22.6,"19:35:52",1
"20/05/24","19:50",0.0,22.6,73.6,1005.5,310.9,1.3,2.1,336.9,0.00,17.7,22.8,"19:48:08",1
"20/05/24","20:00",0.0,22.5,74.2,1005.7,322.2,1.6,2.6,332.2,0.00,17.7,22.7,"19:54:00",1
"20/05/24","20:10",0.0,22.4,74.4,1005.7,292.9,1.1,1.9,341.2,0.00,17.7,22.6,"20:02:40",1
"20/05/24","20:20",0.0,22.4,74.8,1006.0,303.0,1.2,2.5,333.0,0.00,17.8,22.5,"20:18:56",1
"20/05/24","20:30",0.0,22.3,74.9,1006.2,303.1,1.1,2.1,324.5,0.00,17.7,22.6,"20:20:32",1
"20/05/24","20:40",0.0,22.2,75.2,1006.0,313.9,0.8,1.7,341.2,0.00,17.6,22.5,"20:39:12",1
"20/05/24","20:50",0.0,22.3,75.8,1006.2,330.9,0.8,1.3,303.8,0.00,17.9,22.2,"20:40:40",1
"20/05/24","21:00",0.0,22.1,76.6,1006.0,343.4,0.6,1.4,334.3,0.00,17.8,22.4,"20:58:48",1
"20/05/24","21:10",0.0,22.0,77.3,1006.4,336.9,1.1,1.7,339.6,0.00,17.9,22.3,"21:08:40",1
"20/05/24","21:20",0.0,21.9,78.2,1006.2,329.3,1.2,2.0,337.7,0.00,18.0,22.1,"21:16:56",1
"20/05/24","21:30",0.0,21.7,78.7,1006.2,322.5,1.3,1.9,329.2,0.00,17.9,22.2,"21:26:08",1
"20/05/24","21:40",0.0,21.8,78.7,1006.7,328.7,1.7,2.7,334.8,0.00,18.0,22.0,"21:35:52",1
"20/05/24","21:50",0.0,21.8,78.6,1006.4,309.2,1.2,2.0,328.8,0.00,18.0,22.1,"21:40:24",1
"20/05/24","22:00",0.0,21.8,78.5,1006.4,312.1,1.1,1.6,334.9,0.00,17.9,21.9,"21:52:56",1
"20/05/24","22:10",0.0,21.7,78.6,1006.9,324.3,1.0,1.3,344.3,0.00,17.9,22.0,"22:06:00",1
"20/05/24","22:20",0.0,21.7,78.9,1006.7,323.3,1.3,1.9,340.2,0.00,17.9,21.8,"22:15:28",1
"20/05/24","22:30",0.0,21.7,79.1,1006.9,311.3,1.1,1.8,337.0,0.00,18.0,21.9,"22:23:36",1
"20/05/24","22:40",0.0,21.6,79.3,1006.2,330.5,0.8,1.8,321.4,0.00,17.9,21.8,"22:32:00",1
"20/05/24","22:50",0.0,21.7,79.8,1006.4,351.8,1.0,1.4,339.9,0.00,18.1,21.9,"22:42:32",1
"20/05/24","23:00",0.0,21.5,80.3,1006.4,338.2,1.1,1.8,336.3,0.00,18.0,21.7,"22:51:12",1
"20/05/24","23:10",0.0,21.4,80.6,1006.4,331.4,1.1,1.4,339.8,0.00,18.0,21.7,"23:00:16",1
"20/05/24","23:20",0.0,21.3,81.0,1006.0,340.7,1.0,1.4,348.2,0.00,17.9,21.7,"23:15:12",1
"20/05/24","23:30",0.0,21.2,81.5,1006.0,336.5,1.1,1.6,338.7,0.00,17.9,21.6,"23:20:08",1
"20/05/24","23:40",0.0,21.0,82.0,1006.0,324.4,0.8,1.2,303.7,0.00,17.9,21.6,"23:31:36",1
"20/05/24","23:50",0.0,21.0,82.7,1006.0,358.2,0.5,1.7,322.9,0.00,18.0,21.4,"23:49:20",1
"20/05/24","24:00",0.0,20.9,83.0,1006.7,334.2,0.8,1.6,348.8,0.00,17.9,21.6,"23:59:52",1
